sat.trackr.live / text

‹ back to catalog

STARLINK-3785

NORAD 52375 · 2022-045AW

PAYLOAD ACTIVE UNKNOWN

§ Identity

Operator
Country
US
Launch date
2022-04-29
Launch site
AFETR
Launch vehicle
Mass (kg)
RCS (m²)

Purposes: comms

External: N2YO · Heavens-Above · Gunter

§ Orbital elements

Epoch: 2026-09-20T00:59:39.730848Z

Period
93.85 min
Inclination
53.1609°
Eccentricity
0.0000890
Mean motion
15.34393860 rev/d
Perigee alt
462.1 km
Apogee alt
463.3 km
Semi-major
6,840.9 km
B*
1.9424e-5
RAAN
21.9921°
Arg perigee
111.0749°
Mean anomaly
249.0348°
Rev number
24,546

§ Raw data

STARLINK-37851 52375U 22045AW  26263.04143207  .00000280  00000+0  19424-4 0  99982 52375  53.1609  21.9921 0000890 111.0749 249.0348 15.34393860245465

JSON: /api/v1/satellites/52375 · /tle

For live sub-satellite position, see the globe view (requires WebGL).

§ Visibility from observer

Set your observer location to see the next 7 days of passes ≥ 10°. The values pass through the URL so the page stays shareable.

No JS? Fill the form by hand. The geolocation button needs JavaScript.